Tracking 22441 objects as of 28-Feb-2021
HD Live streaming from Space Station
objects crossing your sky now

FREGAT DEB

Track FREGAT DEB now!
10-day predictions


NORAD ID: 45927
Int'l Code: 2011-037ER
Perigee: 423.1 km
Apogee: 1,614.9 km
Inclination: 51.2 °
Period: 105.4 minutes
Semi major axis: 7389 km
RCS: Unknown
Launch date: July 18, 2011
Source: Commonwealth of Independent States (former USSR) (CIS)
Launch site: TYURATAM MISSILE AND SPACE COMPLEX (TTMTR)

Note: This is SATELLITE DEBRIS
aabbcc
Your satellite tracking list
Your tracking list is empty




NASA's NSSDC Master Catalog

Two Line Element Set (TLE):
1 45927U 11037ER  21059.43461387  .00107560  00000-0  11199-1 0  9993
2 45927  51.2050 210.7427 0806402  18.4222 344.4176 13.66588359 30123
Source of the keplerian elements: AFSPC